Time,TemperatureF,DewpointF,PressureIn,WindDirection,WindDirectionDegrees,WindSpeedMPH,WindSpeedGustMPH,Humidity,HourlyPrecipIn,Conditions,Clouds,dailyrainin,SolarRadiationWatts/m^2,SoftwareType,DateUTC
2013-08-20 00:01:00,59.0,48.0,-100.00,West,269,4.0,7.0,66,0.00,,,0.00,0.000000,,2013-08-20 07:01:00,
2013-08-20 00:11:00,59.0,48.0,-100.00,West,269,4.0,7.0,66,0.00,,,0.00,0.000000,,2013-08-20 07:11:00,
2013-08-20 00:42:00,55.0,46.0,-100.00,WSW,256,4.0,6.0,71,0.00,,,0.00,0.000000,,2013-08-20 07:42:00,
2013-08-20 00:52:00,55.0,46.0,-100.00,WSW,256,4.0,6.0,71,0.00,,,0.00,0.000000,,2013-08-20 07:52:00,
2013-08-20 01:02:00,55.0,46.0,-100.00,WSW,256,4.0,6.0,71,0.00,,,0.00,0.000000,,2013-08-20 08:02:00,
2013-08-20 01:11:00,55.0,46.0,-100.00,WSW,256,4.0,6.0,71,0.00,,,0.00,0.000000,,2013-08-20 08:11:00,
2013-08-20 01:42:00,53.0,44.0,-100.00,WSW,253,4.0,5.0,72,0.00,,,0.00,0.000000,,2013-08-20 08:42:00,
2013-08-20 01:52:00,53.0,44.0,-100.00,WSW,253,4.0,5.0,72,0.00,,,0.00,0.000000,,2013-08-20 08:52:00,
2013-08-20 02:01:00,53.0,44.0,-100.00,WSW,253,4.0,5.0,72,0.00,,,0.00,0.000000,,2013-08-20 09:01:00,
2013-08-20 02:11:00,53.0,44.0,-100.00,WSW,253,4.0,5.0,72,0.00,,,0.00,0.000000,,2013-08-20 09:11:00,
2013-08-20 02:42:00,52.0,43.0,-100.00,WSW,249,4.0,6.0,72,0.00,,,0.00,0.000000,,2013-08-20 09:42:00,
2013-08-20 02:53:00,52.0,43.0,-100.00,WSW,249,4.0,6.0,72,0.00,,,0.00,0.000000,,2013-08-20 09:53:00,
2013-08-20 03:03:00,52.0,43.0,-100.00,WSW,249,4.0,6.0,72,0.00,,,0.00,0.000000,,2013-08-20 10:03:00,
2013-08-20 03:12:00,52.0,43.0,-100.00,WSW,249,4.0,6.0,72,0.00,,,0.00,0.000000,,2013-08-20 10:12:00,
2013-08-20 03:42:00,52.0,43.0,-100.00,WSW,244,5.0,6.0,70,0.00,,,0.00,0.000000,,2013-08-20 10:42:00,
2013-08-20 03:52:00,52.0,43.0,-100.00,WSW,244,5.0,6.0,70,0.00,,,0.00,0.000000,,2013-08-20 10:52:00,
2013-08-20 04:02:00,52.0,43.0,-100.00,WSW,244,5.0,6.0,70,0.00,,,0.00,0.000000,,2013-08-20 11:02:00,
2013-08-20 04:11:00,52.0,43.0,-100.00,WSW,244,5.0,6.0,70,0.00,,,0.00,0.000000,,2013-08-20 11:11:00,
2013-08-20 04:42:00,49.0,41.0,-100.00,WSW,252,5.0,6.0,75,0.00,,,0.00,0.000000,,2013-08-20 11:42:00,
2013-08-20 04:52:00,49.0,41.0,-100.00,WSW,252,5.0,6.0,75,0.00,,,0.00,0.000000,,2013-08-20 11:52:00,
2013-08-20 05:01:00,49.0,41.0,-100.00,WSW,252,5.0,6.0,75,0.00,,,0.00,0.000000,,2013-08-20 12:01:00,
2013-08-20 05:12:00,49.0,41.0,-100.00,WSW,252,5.0,6.0,75,0.00,,,0.00,0.000000,,2013-08-20 12:12:00,
2013-08-20 05:42:00,49.0,41.0,-100.00,WSW,245,5.0,6.0,74,0.00,,,0.00,0.000000,,2013-08-20 12:42:00,
2013-08-20 05:52:00,49.0,41.0,-100.00,WSW,245,5.0,6.0,74,0.00,,,0.00,0.000000,,2013-08-20 12:52:00,
2013-08-20 06:01:00,49.0,41.0,-100.00,WSW,245,5.0,6.0,74,0.00,,,0.00,0.000000,,2013-08-20 13:01:00,
2013-08-20 06:11:00,49.0,41.0,-100.00,WSW,245,5.0,6.0,74,0.00,,,0.00,0.000000,,2013-08-20 13:11:00,
2013-08-20 06:42:00,48.0,40.0,-100.00,WSW,249,5.0,6.0,74,0.00,,,0.00,0.000000,,2013-08-20 13:42:00,
2013-08-20 06:52:00,48.0,40.0,-100.00,WSW,249,5.0,6.0,74,0.00,,,0.00,0.000000,,2013-08-20 13:52:00,
2013-08-20 07:02:00,48.0,40.0,-100.00,WSW,249,5.0,6.0,74,0.00,,,0.00,0.000000,,2013-08-20 14:02:00,
2013-08-20 07:11:00,48.0,40.0,-100.00,WSW,249,5.0,6.0,74,0.00,,,0.00,0.000000,,2013-08-20 14:11:00,
2013-08-20 07:42:00,50.0,41.0,-100.00,WSW,249,4.0,6.0,71,0.00,,,0.00,14.000000,,2013-08-20 14:42:00,
2013-08-20 07:52:00,50.0,41.0,-100.00,WSW,249,4.0,6.0,71,0.00,,,0.00,14.000000,,2013-08-20 14:52:00,
2013-08-20 08:02:00,50.0,41.0,-100.00,WSW,249,4.0,6.0,71,0.00,,,0.00,14.000000,,2013-08-20 15:02:00,
2013-08-20 08:11:00,50.0,41.0,-100.00,WSW,249,4.0,6.0,71,0.00,,,0.00,14.000000,,2013-08-20 15:11:00,
2013-08-20 09:53:00,65.0,47.0,-100.00,NE,34,2.0,6.0,52,-99.99,,,0.00,261.000000,,2013-08-20 16:53:00,
2013-08-20 10:03:00,65.0,47.0,-100.00,NE,34,2.0,6.0,52,-99.99,,,0.00,261.000000,,2013-08-20 17:03:00,
2013-08-20 10:12:00,65.0,47.0,-100.00,NE,34,2.0,6.0,52,-99.99,,,0.00,261.000000,,2013-08-20 17:12:00,
2013-08-20 10:43:00,70.0,40.0,-100.00,NE,47,4.0,8.0,34,0.00,,,0.00,386.000000,,2013-08-20 17:43:00,
2013-08-20 10:52:00,70.0,40.0,-100.00,NE,47,4.0,8.0,34,0.00,,,0.00,386.000000,,2013-08-20 17:52:00,
2013-08-20 11:02:00,70.0,40.0,-100.00,NE,47,4.0,8.0,34,0.00,,,0.00,386.000000,,2013-08-20 18:02:00,
2013-08-20 11:12:00,70.0,40.0,-100.00,NE,47,4.0,8.0,34,0.00,,,0.00,386.000000,,2013-08-20 18:12:00,
2013-08-20 11:43:00,74.0,36.0,-100.00,North,4,7.0,12.0,25,0.00,,,0.00,770.000000,,2013-08-20 18:43:00,
2013-08-20 11:52:00,74.0,36.0,-100.00,North,4,7.0,12.0,25,0.00,,,0.00,770.000000,,2013-08-20 18:52:00,
2013-08-20 12:01:00,74.0,36.0,-100.00,North,4,7.0,12.0,25,0.00,,,0.00,770.000000,,2013-08-20 19:01:00,
2013-08-20 12:11:00,74.0,36.0,-100.00,North,4,7.0,12.0,25,0.00,,,0.00,770.000000,,2013-08-20 19:11:00,
2013-08-20 12:42:00,77.0,33.0,-100.00,North,7,5.0,11.0,20,0.00,,,0.00,897.000000,,2013-08-20 19:42:00,
2013-08-20 12:52:00,77.0,33.0,-100.00,North,7,5.0,11.0,20,0.00,,,0.00,897.000000,,2013-08-20 19:52:00,
2013-08-20 13:03:00,77.0,33.0,-100.00,North,7,5.0,11.0,20,0.00,,,0.00,897.000000,,2013-08-20 20:03:00,
2013-08-20 13:11:00,77.0,33.0,-100.00,North,7,5.0,11.0,20,0.00,,,0.00,897.000000,,2013-08-20 20:11:00,
2013-08-20 13:42:00,80.0,31.0,-100.00,NNE,24,6.0,15.0,17,0.00,,,0.00,975.000000,,2013-08-20 20:42:00,
2013-08-20 13:52:00,80.0,31.0,-100.00,NNE,24,6.0,15.0,17,0.00,,,0.00,975.000000,,2013-08-20 20:52:00,
2013-08-20 14:02:00,80.0,31.0,-100.00,NNE,24,6.0,15.0,17,0.00,,,0.00,975.000000,,2013-08-20 21:02:00,
2013-08-20 14:11:00,80.0,31.0,-100.00,NNE,24,6.0,15.0,17,0.00,,,0.00,975.000000,,2013-08-20 21:11:00,
2013-08-20 14:14:00,83.0,27.0,-100.00,NNE,23,6.0,14.0,13,0.00,,,0.00,969.000000,,2013-08-20 21:14:00,
2013-08-20 15:42:00,84.0,26.0,-100.00,NE,49,6.0,12.0,12,0.00,,,0.00,885.000000,,2013-08-20 22:42:00,
2013-08-20 15:53:00,84.0,26.0,-100.00,NE,49,6.0,12.0,12,0.00,,,0.00,885.000000,,2013-08-20 22:53:00,
2013-08-20 16:03:00,84.0,26.0,-100.00,NE,49,6.0,12.0,12,0.00,,,0.00,885.000000,,2013-08-20 23:03:00,
2013-08-20 16:12:00,84.0,26.0,-100.00,NE,49,6.0,12.0,12,0.00,,,0.00,885.000000,,2013-08-20 23:12:00,
2013-08-20 16:43:00,84.0,24.0,-100.00,North,10,7.0,14.0,11,0.00,,,0.00,773.000000,,2013-08-20 23:43:00,
2013-08-20 16:53:00,84.0,24.0,-100.00,North,10,7.0,14.0,11,0.00,,,0.00,773.000000,,2013-08-20 23:53:00,
2013-08-20 17:02:00,84.0,24.0,-100.00,North,10,7.0,14.0,11,0.00,,,0.00,773.000000,,2013-08-21 00:02:00,
2013-08-20 17:12:00,84.0,24.0,-100.00,North,10,7.0,14.0,11,0.00,,,0.00,773.000000,,2013-08-21 00:12:00,
2013-08-20 17:42:00,84.0,22.0,-100.00,NNE,25,6.0,15.0,10,0.00,,,0.00,593.000000,,2013-08-21 00:42:00,
2013-08-20 17:52:00,84.0,22.0,-100.00,NNE,25,6.0,15.0,10,0.00,,,0.00,593.000000,,2013-08-21 00:52:00,
2013-08-20 18:02:00,84.0,22.0,-100.00,NNE,25,6.0,15.0,10,0.00,,,0.00,593.000000,,2013-08-21 01:02:00,
2013-08-20 18:11:00,84.0,22.0,-100.00,NNE,25,6.0,15.0,10,0.00,,,0.00,593.000000,,2013-08-21 01:11:00,
2013-08-20 18:42:00,82.0,26.0,-100.00,NNE,18,7.0,14.0,13,0.00,,,0.00,433.000000,,2013-08-21 01:42:00,
2013-08-20 18:52:00,82.0,26.0,-100.00,NNE,18,7.0,14.0,13,0.00,,,0.00,433.000000,,2013-08-21 01:52:00,
2013-08-20 19:02:00,82.0,26.0,-100.00,NNE,18,7.0,14.0,13,0.00,,,0.00,433.000000,,2013-08-21 02:02:00,
2013-08-20 19:12:00,82.0,26.0,-100.00,NNE,18,7.0,14.0,13,0.00,,,0.00,433.000000,,2013-08-21 02:12:00,
2013-08-20 19:42:00,79.0,26.0,-100.00,NNW,348,7.0,16.0,14,0.00,,,0.00,262.000000,,2013-08-21 02:42:00,
2013-08-20 19:52:00,79.0,26.0,-100.00,NNW,348,7.0,16.0,14,0.00,,,0.00,262.000000,,2013-08-21 02:52:00,
2013-08-20 20:02:00,79.0,26.0,-100.00,NNW,348,7.0,16.0,14,0.00,,,0.00,262.000000,,2013-08-21 03:02:00,
2013-08-20 20:12:00,79.0,26.0,-100.00,NNW,348,7.0,16.0,14,0.00,,,0.00,262.000000,,2013-08-21 03:12:00,
2013-08-20 20:44:00,72.0,25.0,-100.00,NNW,342,5.0,14.0,17,0.00,,,0.00,52.000000,,2013-08-21 03:44:00,
2013-08-20 20:55:00,72.0,25.0,-100.00,NNW,342,5.0,14.0,17,0.00,,,0.00,52.000000,,2013-08-21 03:55:00,
2013-08-20 21:04:00,72.0,25.0,-100.00,NNW,342,5.0,14.0,17,0.00,,,0.00,52.000000,,2013-08-21 04:04:00,
2013-08-20 21:13:00,72.0,25.0,-100.00,NNW,342,5.0,14.0,17,0.00,,,0.00,52.000000,,2013-08-21 04:13:00,
2013-08-20 21:44:00,68.0,23.0,-100.00,NW,313,5.0,8.0,18,0.00,,,0.00,0.000000,,2013-08-21 04:44:00,
2013-08-20 21:54:00,68.0,23.0,-100.00,NW,313,5.0,8.0,18,0.00,,,0.00,0.000000,,2013-08-21 04:54:00,
2013-08-20 22:02:00,68.0,23.0,-100.00,NW,313,5.0,8.0,18,0.00,,,0.00,0.000000,,2013-08-21 05:02:00,
2013-08-20 22:12:00,68.0,23.0,-100.00,NW,313,5.0,8.0,18,0.00,,,0.00,0.000000,,2013-08-21 05:12:00,
2013-08-20 22:43:00,66.0,26.0,-100.00,NW,323,6.0,10.0,22,0.00,,,0.00,0.000000,,2013-08-21 05:43:00,
2013-08-20 22:52:00,66.0,26.0,-100.00,NW,323,6.0,10.0,22,0.00,,,0.00,0.000000,,2013-08-21 05:52:00,
2013-08-20 23:02:00,66.0,26.0,-100.00,NW,323,6.0,10.0,22,0.00,,,0.00,0.000000,,2013-08-21 06:02:00,
2013-08-20 23:12:00,66.0,26.0,-100.00,NW,323,6.0,10.0,22,0.00,,,0.00,0.000000,,2013-08-21 06:12:00,
2013-08-20 23:42:00,65.0,29.0,-100.00,NW,315,7.0,10.0,26,0.00,,,0.00,0.000000,,2013-08-21 06:42:00,
2013-08-20 23:52:00,65.0,29.0,-100.00,NW,315,7.0,10.0,26,0.00,,,0.00,0.000000,,2013-08-21 06:52:00,